Location: Brachstadt
(48.6975°N, 10.6755°E)
Time: 13:26:18
(UTC+00:00)

Envisat - Pass Details

Date: 02 December 2022
Orbit: 763 x 765 km, 98.2° (Epoch: 06 February)

Event Time Altitude Azimuth Distance (km) Brightness Sun altitude
Rises 03:16:37 0° 17° (NNE) 3,246 6.5 -34.3°
Reaches altitude 10° 03:18:59 10° 22° (NNE) 2,315 5.7 -33.9°
Enters shadow 03:21:09 25° 31° (NNE) 1,520 4.8 -33.5°
